H1 CPF 2 NER 2025 3 28 9 087 01 glonass105 H2 0705202 9105 32276 2025 3 28 0 0 0 2025 3 31 23 45 0 900 1 1 0 0 0 1 H9 10 0 60762 0.00000 0 20865696.268 -7513100.924 -12639242.315 10 0 60762 900.00000 0 19377848.179 -6629407.818 -15231213.922 10 0 60762 1800.00000 0 17733433.140 -5439668.881 -17527857.746 10 0 60762 2700.00000 0 15997325.241 -3945518.018 -19484546.303 10 0 60762 3600.00000 0 14234714.307 -2161751.941 -21063210.997 10 0 60762 4500.00000 0 12508417.944 -115979.382 -22233085.109 10 0 60762 5400.00000 0 10876309.258 2152269.256 -22971307.944 10 0 60762 6300.00000 0 9388967.512 4592936.996 -23263378.163 10 0 60762 7200.00000 0 8087649.878 7147284.184 -23103447.009 10 0 60762 8100.00000 0 7002669.218 9750106.426 -22494445.072 10 0 60762 9000.00000 0 6152246.059 12332235.915 -21448039.151 10 0 60762 9900.00000 0 5541883.253 14823223.167 -19984418.986 10 0 60762 10800.00000 0 5164290.006 17154088.221 -18131916.819 10 0 60762 11700.00000 0 4999858.827 19260026.791 -15926466.013 10 0 60762 12600.00000 0 5017675.583 21082958.144 -13410908.300 10 0 60762 13500.00000 0 5177020.068 22573807.601 -10634162.417 10 0 60762 14400.00000 0 5429293.400 23694427.293 -7650269.971 10 0 60762 15300.00000 0 5720290.033 24419073.733 -4517337.271 10 0 60762 16200.00000 0 5992717.141 24735379.463 -1296394.302 10 0 60762 17100.00000 0 6188853.213 24644777.472 1949805.955 10 0 60762 18000.00000 0 6253231.536 24162360.491 5158023.092 10 0 60762 18900.00000 0 6135233.076 23316181.554 8265774.201 10 0 60762 19800.00000 0 5791477.182 22146026.150 11212562.404 10 0 60762 20700.00000 0 5187907.372 20701708.960 13941063.656 10 0 60762 21600.00000 0 4301482.799 19040968.370 16398247.713 10 0 60762 22500.00000 0 3121403.068 17227048.826 18536410.811 10 0 60762 23400.00000 0 1649814.319 15326074.004 20314099.831 10 0 60762 24300.00000 0 -98033.299 13404322.080 21696910.324 10 0 60762 25200.00000 0 -2094183.309 11525517.800 22658143.726 10 0 60762 26100.00000 0 -4298908.876 9748254.709 23179312.083 10 0 60762 27000.00000 0 -6662147.717 8123654.669 23250481.865 10 0 60762 27900.00000 0 -9125376.040 6693361.231 22870451.570 10 0 60762 28800.00000 0 -11623843.483 5487948.998 22046760.990 10 0 60762 29700.00000 0 -14089076.453 4525813.399 20795533.063 10 0 60762 30600.00000 0 -16451546.405 3812585.103 19141152.176 10 0 60762 31500.00000 0 -18643393.000 3341091.447 17115785.655 10 0 60762 32400.00000 0 -20601090.031 3091864.581 14758757.827 10 0 60762 33300.00000 0 -22267944.441 3034173.464 12115788.635 10 0 60762 34200.00000 0 -23596325.599 3127535.233 9238111.184 10 0 60762 35100.00000 0 -24549533.166 3323641.703 6181484.710 10 0 60762 36000.00000 0 -25103226.617 3568619.624 3005121.472 10 0 60762 36900.00000 0 -25246357.549 3805529.477 -229452.325 10 0 60762 37800.00000 0 -24981566.335 3976997.666 -3459580.132 10 0 60762 38700.00000 0 -24325026.759 4027871.381 -6622680.912 10 0 60762 39600.00000 0 -23305745.103 3907784.352 -9657454.320 10 0 60762 40500.00000 0 -21964342.699 3573525.312 -12505062.371 10 0 60762 41400.00000 0 -20351372.345 2991109.075 -15110265.119 10 0 60762 42300.00000 0 -18525238.377 2137462.374 -17422488.640 10 0 60762 43200.00000 0 -16549806.555 1001652.503 -19396804.970 10 0 60762 44100.00000 0 -14491802.858 -414394.327 -20994805.211 10 0 60762 45000.00000 0 -12418109.071 -2095716.870 -22185348.997 10 0 60762 45900.00000 0 -10393067.408 -4014694.469 -22945175.741 10 0 60762 46800.00000 0 -8475906.119 -6131961.032 -23259365.601 10 0 60762 47700.00000 0 -6718393.216 -8397821.476 -23121640.727 10 0 60762 48600.00000 0 -5162816.090 -10754113.732 -22534500.266 10 0 60762 49500.00000 0 -3840371.440 -13136440.569 -21509185.585 10 0 60762 50400.00000 0 -2770033.017 -15476679.646 -20065475.276 10 0 60762 51300.00000 0 -1957944.813 -17705668.064 -18231312.785 10 0 60762 52200.00000 0 -1397365.345 -19755949.842 -16042272.737 10 0 60762 53100.00000 0 -1069165.533 -21564471.404 -13540875.351 10 0 60762 54000.00000 0 -942859.093 -23075111.766 -10775761.576 10 0 60762 54900.00000 0 -978121.652 -24240940.589 -7800744.623 10 0 60762 55800.00000 0 -1126733.717 -25026108.290 -4673756.482 10 0 60762 56700.00000 0 -1334864.238 -25407287.800 -1455710.511 10 0 60762 57600.00000 0 -1545596.718 -25374606.510 1790696.835 10 0 60762 58500.00000 0 -1701589.114 -24932028.671 5002220.423 10 0 60762 59400.00000 0 -1747753.077 -24097172.106 8116311.493 10 0 60762 60300.00000 0 -1633837.123 -22900567.345 11072347.602 10 0 60762 61200.00000 0 -1316802.731 -21384391.260 13812822.080 10 0 60762 62100.00000 0 -762891.402 -19600729.634 16284468.812 10 0 60762 63000.00000 0 50705.668 -17609443.047 18439299.788 10 0 60762 63900.00000 0 1134646.409 -15475726.993 20235535.080 10 0 60762 64800.00000 0 2486756.024 -13267469.624 21638407.483 10 0 60762 65700.00000 0 4091893.128 -11052518.425 22620826.966 10 0 60762 66600.00000 0 5922369.246 -8895970.302 23163893.149 10 0 60762 67500.00000 0 7938903.837 -6857597.830 23257247.165 10 0 60762 68400.00000 0 10092074.698 -4989518.032 22899257.500 10 0 60762 69300.00000 0 12324203.132 -3334199.378 22097037.501 10 0 60762 70200.00000 0 14571595.439 -1922888.162 20866295.346 10 0 60762 71100.00000 0 16767047.791 -774517.658 19231020.197 10 0 60762 72000.00000 0 18842510.845 104856.671 17223011.138 10 0 60762 72900.00000 0 20731804.010 722074.515 14881258.169 10 0 60762 73800.00000 0 22373267.352 1096341.847 12251187.123 10 0 60762 74700.00000 0 23712241.674 1258179.550 9383782.743 10 0 60762 75600.00000 0 24703274.346 1247894.842 6334606.377 10 0 60762 76500.00000 0 25311959.743 1113640.475 3162726.631 10 0 60762 77400.00000 0 25516338.050 909143.699 -70416.930 10 0 60762 78300.00000 0 25307794.418 691200.708 -3302195.685 10 0 60762 79200.00000 0 24691420.990 517042.039 -6469997.196 10 0 60762 80100.00000 0 23685826.482 441679.817 -9512430.925 10 0 60762 81000.00000 0 22322400.848 515348.586 -12370511.561 10 0 60762 81900.00000 0 20644065.113 781147.682 -14988797.456 10 0 60762 82800.00000 0 18703557.765 1272984.845 -17316462.441 10 0 60762 83700.00000 0 16561328.346 2013908.321 -19308280.560 10 0 60762 84600.00000 0 14283125.120 3014898.755 -20925504.882 10 0 60762 85500.00000 0 11937376.519 4274173.071 -22136623.415 10 0 60763 0.00000 0 9592474.809 5777031.266 -22917977.413 10 0 60763 900.00000 0 7314073.175 7496255.488 -23254230.187 10 0 60763 1800.00000 0 5162511.415 9393044.867 -23138675.914 10 0 60763 2700.00000 0 3190472.971 11418451.861 -22573383.176 10 0 60763 3600.00000 0 1440973.932 13515260.230 -21569168.380 10 0 60763 4500.00000 0 -54233.313 15620228.559 -20145399.024 10 0 60763 5400.00000 0 -1275774.775 17666606.745 -18329629.360 10 0 60763 6300.00000 0 -2217241.152 19586820.921 -16157074.404 10 0 60763 7200.00000 0 -2885221.041 21315214.595 -13669931.523 10 0 60763 8100.00000 0 -3298779.803 22790730.812 -10916562.070 10 0 60763 9000.00000 0 -3488406.364 23959422.027 -7950548.610 10 0 60763 9900.00000 0 -3494473.024 24776681.172 -4829646.171 10 0 60763 10800.00000 0 -3365274.376 25209098.912 -1614648.497 10 0 60763 11700.00000 0 -3154729.618 25235867.788 1631807.729 10 0 60763 12600.00000 0 -2919847.201 24849673.197 4846476.054 10 0 60763 13500.00000 0 -2718061.006 24057033.161 7966745.337 10 0 60763 14400.00000 0 -2604552.803 22878072.489 10931871.005 10 0 60763 15300.00000 0 -2629676.110 21345741.227 13684167.074 10 0 60763 16200.00000 0 -2836592.035 19504511.064 16170134.672 10 0 60763 17100.00000 0 -3259218.210 17408605.489 18341504.423 10 0 60763 18000.00000 0 -3920578.169 15119839.156 20156172.195 10 0 60763 18900.00000 0 -4831621.105 12705158.033 21579010.325 10 0 60763 19800.00000 0 -5990561.677 10233983.989 22582539.299 10 0 60763 20700.00000 0 -7382767.302 7775475.162 23147447.932 10 0 60763 21600.00000 0 -8981197.265 5395816.160 23262953.258 10 0 60763 22500.00000 0 -10747374.843 3155650.295 22926994.556 10 0 60763 23400.00000 0 -12632851.459 1107759.471 22146259.065 10 0 60763 24300.00000 0 -14581101.629 -704913.454 20936040.021 10 0 60763 25200.00000 0 -16529769.745 -2250819.620 19319930.646 10 0 60763 26100.00000 0 -18413175.391 -3510873.925 17329360.520 10 0 60763 27000.00000 0 -20164973.318 -4478997.325 15002983.530 10 0 60763 27900.00000 0 -21720857.958 -5162111.178 12385929.121 10 0 60763 28800.00000 0 -23021200.472 -5579585.768 9528930.987 10 0 60763 29700.00000 0 -24013509.136 -5762167.620 6487349.547 10 0 60763 30600.00000 0 -24654611.049 -5750431.706 3320106.468 10 0 60763 31500.00000 0 -24912464.513 -5592824.241 88551.217 10 0 60763 32400.00000 0 -24767526.657 -5343378.745 -3144719.062 10 0 60763 33300.00000 0 -24213619.098 -5059201.554 -6317064.117 10 0 60763 34200.00000 0 -23258255.150 -4797832.635 -9367006.771 10 0 60763 35100.00000 0 -21922414.343 -4614592.762 -12235417.844 10 0 60763 36000.00000 0 -20239772.842 -4560028.775 -14866657.283 10 0 60763 36900.00000 0 -18255420.895 -4677564.681 -17209649.704 10 0 60763 37800.00000 0 -16024119.712 -5001457.885 -19218873.838 10 0 60763 38700.00000 0 -13608169.230 -5555147.261 -20855246.927 10 0 60763 39600.00000 0 -11074974.425 -6350063.618 -22086887.010 10 0 60763 40500.00000 0 -8494410.378 -7384953.962 -22889738.329 10 0 60763 41400.00000 0 -5936094.741 -8645749.678 -23248047.486 10 0 60763 42300.00000 0 -3466680.302 -10105986.141 -23154680.678 10 0 60763 43200.00000 0 -1147279.706 -11727758.234 -22611275.176 10 0 60763 44100.00000 0 968870.837 -13463173.802 -21628221.212 10 0 60763 45000.00000 0 2838411.665 -15256245.935 -20224473.561 10 0 60763 45900.00000 0 4429440.158 -17045146.285 -18427195.317 10 0 60763 46800.00000 0 5722605.534 -18764725.965 -16271239.648 10 0 60763 47700.00000 0 6711672.009 -20349198.705 -13798478.605 10 0 60763 48600.00000 0 7403526.804 -21734873.527 -11056991.309 10 0 60763 49500.00000 0 7817632.883 -22862821.480 -8100126.906 10 0 60763 50400.00000 0 7984950.055 -23681363.220 -4985460.611 10 0 60763 51300.00000 0 7946370.829 -24148271.439 -1773663.664 10 0 60763 52200.00000 0 7750738.382 -24232594.002 1472689.901 10 0 60763 53100.00000 0 7452532.011 -23916019.732 4690355.121 10 0 60763 54000.00000 0 7109319.856 -23193728.315 7816661.167 10 0 60763 54900.00000 0 6779088.616 -22074687.961 10790743.854 10 0 60763 55800.00000 0 6517565.170 -20581388.194 13554740.191 10 0 60763 56700.00000 0 6375645.049 -18749019.349 16054920.587 10 0 60763 57600.00000 0 6397037.812 -16624133.925 18242736.031 10 0 60763 58500.00000 0 6616229.638 -14262846.882 20075759.580 10 0 60763 59400.00000 0 7056849.486 -11728651.177 21518504.148 10 0 60763 60300.00000 0 7730507.658 -9089940.655 22543101.416 10 0 60763 61200.00000 0 8636155.218 -6417344.204 23129829.735 10 0 60763 62100.00000 0 9759990.646 -3780982.289 23267482.078 10 0 60763 63000.00000 0 11075916.948 -1247759.588 22953568.289 10 0 60763 63900.00000 0 12546529.495 1121194.647 22194349.057 10 0 60763 64800.00000 0 14124592.806 3272833.644 21004702.071 10 0 60763 65700.00000 0 15754944.374 5164153.558 19407823.854 10 0 60763 66600.00000 0 17376746.009 6763727.921 17434773.599 10 0 60763 67500.00000 0 18925989.021 8052754.542 15123868.051 10 0 60763 68400.00000 0 20338149.119 9025573.428 12519939.071 10 0 60763 69300.00000 0 21550880.741 9689636.169 9673467.906 10 0 60763 70200.00000 0 22506638.929 10064929.808 6639612.422 10 0 60763 71100.00000 0 23155119.726 10182880.699 3477145.464 10 0 60763 72000.00000 0 23455417.494 10084785.275 247324.269 10 0 60763 72900.00000 0 23377809.128 9819834.238 -2987287.836 10 0 60763 73800.00000 0 22905090.458 9442813.465 -6164025.284 10 0 60763 74700.00000 0 22033408.570 9011578.414 -9221326.836 10 0 60763 75600.00000 0 20772554.549 8584408.211 -12099922.017 10 0 60763 76500.00000 0 19145703.484 8217350.680 -14743974.860 10 0 60763 77400.00000 0 17188611.378 7961670.047 -17102163.138 10 0 60763 78300.00000 0 14948301.142 7861504.841 -19128672.484 10 0 60763 79200.00000 0 12481290.990 7951834.910 -20784086.371 10 0 60763 80100.00000 0 9851437.558 8256843.720 -22036154.771 10 0 60763 81000.00000 0 7127482.110 8788745.746 -22860426.606 10 0 60763 81900.00000 0 4380400.581 9547129.569 -23240733.467 10 0 60763 82800.00000 0 1680666.565 10518845.815 -23169514.812 10 0 60763 83700.00000 0 -904459.787 11678446.440 -22647977.643 10 0 60763 84600.00000 0 -3313504.854 12989158.747 -21686086.703 10 0 60763 85500.00000 0 -5493109.789 14404354.991 -20302384.324 10 0 60764 0.00000 0 -7400016.903 15869457.279 -18523642.451 10 0 60764 900.00000 0 -9002632.231 17324199.649 -16384351.462 10 0 60764 1800.00000 0 -10282096.390 18705150.975 -13926057.160 10 0 60764 2700.00000 0 -11232822.187 19948395.261 -11196554.937 10 0 60764 3600.00000 0 -11862473.976 20992254.162 -8248958.638 10 0 60764 4500.00000 0 -12191391.020 21779936.848 -5140661.425 10 0 60764 5400.00000 0 -12251479.695 22262004.143 -1932209.497 10 0 60764 6300.00000 0 -12084622.344 22398541.539 1313888.557 10 0 60764 7200.00000 0 -11740671.418 22160947.918 4534392.254 10 0 60764 8100.00000 0 -11275115.416 21533263.277 7666574.211 10 0 60764 9000.00000 0 -10746517.237 20512978.456 10649453.851 10 0 60764 9900.00000 0 -10213835.186 19111292.223 13424994.385 10 0 60764 10800.00000 0 -9733741.690 17352804.777 15939238.659 10 0 60764 11700.00000 0 -9358054.454 15274660.807 18143361.042 10 0 60764 12600.00000 0 -9131389.560 12925178.700 19994614.603 10 0 60764 13500.00000 0 -9089136.022 10362023.991 21457155.408 10 0 60764 14400.00000 0 -9255837.149 7650004.137 22502728.610 10 0 60764 15300.00000 0 -9644046.444 4858577.157 23111204.023 10 0 60764 16200.00000 0 -10253705.352 2059178.135 23270952.103 10 0 60764 17100.00000 0 -11072068.131 -677525.495 22979054.387 10 0 60764 18000.00000 0 -12074176.022 -3284336.489 22241345.672 10 0 60764 18900.00000 0 -13223860.044 -5700077.147 21072288.271 10 0 60764 19800.00000 0 -14475229.848 -7871881.276 19494681.675 10 0 60764 20700.00000 0 -15774585.976 -9757135.446 17539213.838 10 0 60764 21600.00000 0 -17062675.500 -11324991.013 15243863.018 10 0 60764 22500.00000 0 -18277196.900 -12557386.171 12653161.671 10 0 60764 23400.00000 0 -19355449.776 -13449537.456 9817336.353 10 0 60764 24300.00000 0 -20237019.016 -14009882.083 6791339.761 10 0 60764 25200.00000 0 -20866381.560 -14259475.014 3633792.990 10 0 60764 26100.00000 0 -21195326.989 -14230867.174 405857.876 10 0 60764 27000.00000 0 -21185090.757 -13966512.607 -2829939.444 10 0 60764 27900.00000 0 -20808110.664 -13516771.882 -6010911.600 10 0 60764 28800.00000 0 -20049332.623 -12937595.744 -9075416.892 10 0 60764 29700.00000 0 -18907010.382 -12287986.358 -11964047.169 10 0 60764 30600.00000 0 -17392964.707 -11627342.716 -14620774.118 10 0 60764 31500.00000 0 -15532289.909 -11012801.671 -16994032.068 10 0 60764 32400.00000 0 -13362518.455 -10496686.335 -19037716.672 10 0 60764 33300.00000 0 -10932276.820 -10124169.160 -20712080.346 10 0 60764 34200.00000 0 -8299486.859 -9931248.246 -21984507.197 10 0 60764 35100.00000 0 -5529185.868 -9943122.455 -22830152.415 10 0 60764 36000.00000 0 -2691054.373 -10173034.457 -23232433.535 10 0 60764 36900.00000 0 143246.983 -10621631.460 -23183363.577 10 0 60764 37800.00000 0 2902821.887 -11276871.787 -22683718.982 10 0 60764 38700.00000 0 5520250.980 -12114482.782 -21743038.171 10 0 60764 39600.00000 0 7934160.260 -13098952.280 -20379449.739 10 0 60764 40500.00000 0 10091538.645 -14185013.371 -18619332.435 10 0 60764 41400.00000 0 11949708.032 -15319561.146 -16496812.430 10 0 60764 42300.00000 0 13477863.470 -16443921.466 -14053106.627 10 0 60764 43200.00000 0 14658118.796 -17496376.442 -11335724.010 10 0 60764 44100.00000 0 15486013.869 -18414839.894 -8397540.174 10 0 60764 45000.00000 0 15970462.180 -19139569.124 -5295763.058 10 0 60764 45900.00000 0 16133141.513 -19615797.362 -2090810.473 10 0 60764 46800.00000 0 16007354.116 -19796174.215 1154877.859 10 0 60764 47700.00000 0 15636405.684 -19642909.471 4378069.360 10 0 60764 48600.00000 0 15071573.123 -19129528.187 7515983.387 10 0 60764 49500.00000 0 14369748.771 -18242161.677 10507526.038 10 0 60764 50400.00000 0 13590862.454 -16980319.022 13294489.493 10 0 60764 51300.00000 0 12795192.152 -15357106.041 15822691.406 10 0 60764 52200.00000 0 12040678.365 -13398882.404 18043031.464 10 0 60764 53100.00000 0 11380356.680 -11144371.496 19912444.217 10 0 60764 54000.00000 0 10860017.459 -8643260.809 21394729.872 10 0 60764 54900.00000 0 10516191.309 -5954351.915 22461247.580 10 0 60764 55800.00000 0 10374544.715 -3143337.735 23091458.707 10 0 60764 56700.00000 0 10448752.440 -280299.973 23273310.883 10 0 60764 57600.00000 0 10739892.924 2562969.293 23003456.684 10 0 60764 58500.00000 0 11236390.815 5315711.030 22287304.092 10 0 60764 59400.00000 0 11914507.801 7910894.719 21138898.898 10 0 60764 60300.00000 0 12739360.182 10287755.379 19580642.251 10 0 60764 61200.00000 0 13666419.707 12394068.451 17642849.435 10 0 60764 62100.00000 0 14643434.389 14188070.002 15363158.680 10 0 60764 63000.00000 0 15612688.651 15639944.429 12785801.407 10 0 60764 63900.00000 0 16513508.230 16732819.679 9960747.738 10 0 60764 64800.00000 0 17284905.118 17463230.354 6942743.331 10 0 60764 65700.00000 0 17868252.063 17841030.901 3790255.541 10 0 60764 66600.00000 0 18209874.805 17888763.772 564348.678 10 0 60764 67500.00000 0 18263453.527 17640509.883 -2672490.528 10 0 60764 68400.00000 0 17992132.819 17140270.101 -5857555.173 10 0 60764 69300.00000 0 17370251.345 16439945.868 -8929125.360 10 0 60764 70200.00000 0 16384618.101 15597003.744 -11827657.469 10 0 60764 71100.00000 0 15035280.803 14671921.732 -14496932.931 10 0 60764 72000.00000 0 13335752.931 13725524.384 -16885144.582 10 0 60764 72900.00000 0 11312688.347 12816318.359 -18945899.905 10 0 60764 73800.00000 0 9005015.226 11997940.146 -20639121.917 10 0 60764 74700.00000 0 6462563.484 11316823.092 -21931830.382 10 0 60764 75600.00000 0 3744240.902 10810181.880 -22798788.148 10 0 60764 76500.00000 0 915831.917 10504399.487 -23222999.919 10 0 60764 77400.00000 0 -1952491.064 10413885.034 -23196053.308 10 0 60764 78300.00000 0 -4788841.860 10540451.393 -22718294.955 10 0 60764 79200.00000 0 -7522370.188 10873239.801 -21798837.400 10 0 60764 80100.00000 0 -10085973.206 11389195.811 -20455395.545 10 0 60764 81000.00000 0 -12418856.471 12054077.728 -18713954.762 10 0 60764 81900.00000 0 -14468837.725 12823956.071 -16608275.938 10 0 60764 82800.00000 0 -16194297.139 13647141.606 -14179246.065 10 0 60764 83700.00000 0 -17565692.234 14466460.946 -11474086.258 10 0 60764 84600.00000 0 -18566573.742 15221783.528 -8545432.120 10 0 60764 85500.00000 0 -19194059.596 15852692.594 -5450304.389 10 0 60765 0.00000 0 -19458747.258 16301186.147 -2248990.606 10 0 60765 900.00000 0 -19384068.585 16514292.478 996141.306 10 0 60765 1800.00000 0 -19005115.041 16446487.446 4221868.911 10 0 60765 2700.00000 0 -18366984.515 16061810.467 7365360.989 10 0 60765 3600.00000 0 -17522720.684 15335587.598 10365413.126 10 0 60765 4500.00000 0 -16530933.879 14255687.990 13163649.359 10 0 60765 5400.00000 0 -15453205.639 12823259.801 15705665.073 10 0 60765 6300.00000 0 -14351388.070 11052914.070 17942088.134 10 0 60765 7200.00000 0 -13284913.181 8972348.725 19829537.293 10 0 60765 8100.00000 0 -12308226.352 6621428.672 21331459.401 10 0 60765 9000.00000 0 -11468452.207 4050760.808 22418829.800 10 0 60765 9900.00000 0 -10803390.720 1319823.846 23070703.265 10 0 60765 10800.00000 0 -10339926.902 -1505268.784 23274606.053 10 0 60765 11700.00000 0 -10092919.574 -4354279.892 23026762.825 10 0 60765 12600.00000 0 -10064614.363 -7155529.211 22332155.356 10 0 60765 13500.00000 0 -10244603.958 -9838633.222 21204413.089 10 0 60765 14400.00000 0 -10610335.817 -12337191.464 19665538.572 10 0 60765 15300.00000 0 -11128144.781 -14591309.191 17745473.734 10 0 60765 16200.00000 0 -11754766.357 -16549853.313 15481515.690 10 0 60765 17100.00000 0 -12439266.630 -18172349.665 12917593.350 10 0 60765 18000.00000 0 -13125307.577 -19430444.457 10103418.590 10 0 60765 18900.00000 0 -13753652.745 -20308870.758 7093527.915 10 0 60765 19800.00000 0 -14264808.307 -20805881.223 3946232.549 10 0 60765 20700.00000 0 -14601688.852 -20933130.172 722496.654 10 0 60765 21600.00000 0 -14712196.162 -20715010.906 -2515235.294 10 0 60765 22500.00000 0 -14551602.740 -20187476.519 -5704239.903 10 0 60765 23400.00000 0 -14084639.782 -19396393.920 -8782722.297 10 0 60765 24300.00000 0 -13287201.478 -18395500.013 -11691006.732 10 0 60765 25200.00000 0 -12147593.276 -17244045.569 -14372687.792 10 0 60765 26100.00000 0 -10667270.562 -16004225.255 -16775720.197 10 0 60765 27000.00000 0 -8861035.299 -14738501.217 -18853426.476 10 0 60765 27900.00000 0 -6756680.511 -13506932.086 -20565403.195 10 0 60765 28800.00000 0 -4394095.426 -12364619.127 -21878308.310 10 0 60765 29700.00000 0 -1823866.434 -11359376.467 -22766514.371 10 0 60765 30600.00000 0 894570.036 -10529723.139 -23212614.726 10 0 60765 31500.00000 0 3695147.834 -9903281.434 -23207772.476 10 0 60765 32400.00000 0 6507674.008 -9495649.218 -22751904.787 10 0 60765 33300.00000 0 9260511.704 -9309794.249 -21853698.115 10 0 60765 34200.00000 0 11883332.426 -9335996.726 -20530452.997 10 0 60765 35100.00000 0 14309823.702 -9552343.337 -18807760.301 10 0 60765 36000.00000 0 16480239.566 -9925752.778 -16719014.068 10 0 60765 36900.00000 0 18343687.242 -10413490.120 -14304769.407 10 0 60765 37800.00000 0 19860054.119 -10965106.400 -11611957.150 10 0 60765 38700.00000 0 21001493.879 -11524721.419 -8692970.085 10 0 60765 39600.00000 0 21753409.003 -12033552.688 -5604638.542 10 0 60765 40500.00000 0 22114888.157 -12432582.559 -2407115.697 10 0 60765 41400.00000 0 22098580.154 -12665249.299 837304.905 10 0 60765 42300.00000 0 21730010.250 -12680046.586 4065415.342 10 0 60765 43200.00000 0 21046368.495 -12432919.675 7214337.567 10 0 60765 44100.00000 0 20094822.507 -11889355.194 10222760.210 10 0 60765 45000.00000 0 18930427.381 -11026074.767 13032142.409 10 0 60765 45900.00000 0 17613722.560 -9832259.782 15587860.107 10 0 60765 46800.00000 0 16208118.561 -8310254.910 17840271.704 10 0 60765 47700.00000 0 14777185.016 -6475720.317 19745682.002 10 0 60765 48600.00000 0 13381955.127 -4357226.130 21267185.814 10 0 60765 49500.00000 0 12078360.267 -1995306.263 22375375.483 10 0 60765 50400.00000 0 10914902.350 558988.554 23048899.485 10 0 60765 51300.00000 0 9930660.891 3245977.930 23274862.525 10 0 60765 52200.00000 0 9153717.091 5999600.443 23049060.721 10 0 60765 53100.00000 0 8600059.372 8749930.370 22376048.620 10 0 60765 54000.00000 0 8273014.424 11425858.388 21269037.948 10 0 60765 54900.00000 0 8163225.727 13957825.767 19749631.008 10 0 60765 55800.00000 0 8249178.756 16280499.608 17847394.510 10 0 60765 56700.00000 0 8498249.413 18335279.417 15599282.416 10 0 60765 57600.00000 0 8868230.626 20072532.392 13048918.969 10 0 60765 58500.00000 0 9309272.347 21453466.028 10245755.530 10 0 60765 59400.00000 0 9766153.128 22451561.597 7244117.099 10 0 60765 60300.00000 0 10180787.785 23053510.156 4102156.344 10 0 60765 61200.00000 0 10494865.831 23259613.120 880734.805 10 0 60765 62100.00000 0 10652509.947 23083631.538 -2357747.775 10 0 60765 63000.00000 0 10602842.783 22552090.915 -5550553.948 10 0 60765 63900.00000 0 10302354.133 21703070.911 -8635816.194 10 0 60765 64800.00000 0 9716968.652 20584530.538 -11553728.827 10 0 60765 65700.00000 0 8823726.586 19252238.744 -14247701.572 10 0 60765 66600.00000 0 7612005.966 17767396.624 -16665452.814 10 0 60765 67500.00000 0 6084233.593 16194050.317 -18760021.696 10 0 60765 68400.00000 0 4256053.280 14596402.386 -20490679.703 10 0 60765 69300.00000 0 2155942.282 13036133.718 -21823724.171 10 0 60765 70200.00000 0 -175710.287 11569847.692 -22733138.351 10 0 60765 71100.00000 0 -2688026.915 10246743.319 -23201105.035 10 0 60765 72000.00000 0 -5321509.929 9106614.741 -23218363.377 10 0 60765 72900.00000 0 -8010278.720 8178261.003 -22784401.347 10 0 60765 73800.00000 0 -10684584.586 7478373.047 -21907479.247 10 0 60765 74700.00000 0 -13273499.747 7010945.099 -20604482.796 10 0 60765 75600.00000 0 -15707669.421 6767235.678 -18900607.517 10 0 60765 76500.00000 0 -17922012.614 6726280.385 -16828879.403 10 0 60765 77400.00000 0 -19858258.842 6855935.282 -14429520.156 10 0 60765 78300.00000 0 -21467214.367 7114407.028 -11749168.566 10 0 60765 79200.00000 0 -22710662.499 7452205.025 -8839972.665 10 0 60765 80100.00000 0 -23562817.566 7814432.511 -5758570.319 10 0 60765 81000.00000 0 -24011270.975 8143318.746 -2564978.471 10 0 60765 81900.00000 0 -24057389.205 8380883.749 678586.525 10 0 60765 82800.00000 0 -23716147.040 8471621.162 3908933.321 10 0 60765 83700.00000 0 -23015403.519 8365083.835 7063139.479 10 0 60765 84600.00000 0 -21994652.002 8018260.912 10079789.209 10 0 60765 85500.00000 0 -20703298.278 7397644.211 12900179.356 99